COSMOS 2251 DEB, 37278

Orbit data source: Space-Track

COSMOS 2251 DEB, 37278 is space debris in LEO originally from a launch on Wed, 16 Jun 1993 UTC launched from the Plesetsk Missile And Space Complex (PKMTR). The debris from Iridium 33, an American commercial communications satellite, has been tracked extensively since its accidental collision with the defunct Russian satellite Cosmos 2251 in 2009. This event, occurring at high speed in low Earth orbit (LEO), generated thousands of pieces of space debris, significantly increasing the risk of further collisions. The Iridium 33 debris cloud has impacted space traffic management and orbital debris mitigation strategies, making it a subject of ongoing study in space situational awareness.

Loading next visibility...
Identifier
37278, 1993-036BHS
Orbit
LEO
Country
Flag of CISCIS
Related business
Manufacturer
Unknown
Mission
Spacecraft
Bus & Motor
Unknown
Mass
Unknown
Launch date (UTC)
1993-06-16 (33 years ago)
Launch vehicle
Unknown
Launch site
Plesetsk Missile And Space Complex (PKMTR)
Object type
Payload
Rocket body
Debris
Shape & HBR
Unknown shape, 0.1 m
Radar Cross Section
Medium (>0.1 m² and <1 m²)

Expand to show TLE details & history
Last TLE update: 1 month ago

TLE from 1 month ago
0 COSMOS 2251 DEB
1 37278U 93036BHS 26201.65097400  .00002001  00000-0  66864-3 0  9996
2 37278  73.7857 312.1101 0295524  96.4926 329.5834 14.16192457669418
Epoch: 2026-07-20T15:37Z
TLE epoch observation values (Epoch: 2026-07-20T15:37:24.153Z)
Latitude
60.02215°
Longitude
169.41938°
Altitude
665.832 km
Speed
7.625 km/s
True Right ascension
22h 48m 48s
True Declination
59° 52' 16"
Sunlit
Object was in daylight at epoch
Visualization orbit readout
Latitude
Unknown
Longitude
Unknown
Altitude
Unknown
Speed
Unknown
Apparent Right ascension
Unknown
Apparent Declination
Unknown
Sunlit
N/A
Visualization observer readout
Local Sidereal Time
17:14:26
Azimuth
Unknown
Elevation
Unknown
Doppler factor
Unknown
Orbital elements
Apogee altitude
1,049.115 km
Perigee altitude
622.73 km
Semi-major axis
7,214.06 km
Eccentricity
0.02955
Inclination
73.7857°
RAAN
312.1101°
Arg. of periapsis
96.4926°
True anomaly
327.81284°
Mean anomaly
329.5834°
Eccentric anomaly
328.70383°
Mean motion
3.5422 °/min
Orbital period
101.63 mins
BSTAR
0.00066864

Documentation

Showing up to 5 results
|